Wind_Speed
13 14 13 13 13 14 14 13 13 14 14 15 16 15 15 15 15 16 16 16 16 17 18 19 20 21 23 24 26 28 29 30 31 33 34 35 36 38 39 40 41 41 41 41
14 14 14 12 12 14 14 14 14 15 15 16 16 16 16 16 16 16 16 17 17 18 19 20 21 23 24 26 27 29 30 31 33 34 36 37 39 40 41 42 42 43 42 41
13 14 15 13 13 14 14 14 14 14 16 17 17 17 17 17 17 17 17 18 18 19 20 22 23 24 26 27 29 30 32 33 34 36 38 40 41 42 43 43 44 43 42 41
13 14 15 12 15 14 13 13 14 15 16 17 18 18 18 18 18 18 18 19 20 21 22 23 24 26 27 28 30 31 33 34 36 38 40 41 43 44 44 44 44 43 42 41
15 14 14 14 16 14 13 13 16 16 18 19 19 19 19 19 19 19 19 20 21 22 23 25 26 27 28 30 31 33 34 36 37 39 41 43 44 45 45 45 44 43 42 41
17 15 13 15 18 16 15 14 18 19 20 21 20 20 20 20 20 20 21 21 22 23 24 26 27 29 30 32 33 34 35 37 38 40 43 44 45 46 46 45 44 43 42 41
19 18 17 21 18 17 16 19 21 21 22 22 22 21 21 22 22 22 23 23 24 25 26 28 29 30 32 33 34 35 36 38 40 42 44 46 47 47 46 45 43 42 41 40
22 20 21 24 21 21 22 22 23 23 24 23 23 23 23 23 24 25 26 26 27 28 29 31 32 33 34 35 36 37 37 39 42 44 46 48 48 47 46 44 43 41 39 38
25 25 26 25 25 24 24 23 24 25 25 25 25 26 26 26 26 27 28 29 30 32 33 34 35 35 36 37 38 39 40 42 43 46 47 48 48 47 46 45 42 40 38 37
26 26 27 27 26 26 25 25 25 26 26 27 27 28 29 29 29 30 30 32 33 34 35 36 37 38 38 40 41 42 44 44 45 47 48 48 48 47 46 44 41 40 38 36
28 28 28 29 28 28 28 28 28 29 29 30 30 31 31 32 32 32 33 34 35 37 39 39 40 41 42 42 43 45 46 47 47 48 48 48 48 47 45 43 41 39 37 35
30 30 30 30 30 30 30 31 31 31 32 32 33 33 33 33 34 35 36 37 38 40 41 42 43 44 45 45 46 47 48 48 49 49 49 49 48 47 45 42 40 38 36 35
30 31 31 32 32 32 32 33 33 33 33 33 34 34 34 35 36 37 39 40 41 43 44 45 46 47 46 48 49 49 49 50 50 49 49 49 48 46 43 41 38 37 36 34
30 31 32 33 33 33 33 33 34 34 34 34 35 36 36 37 38 40 41 43 45 46 47 48 49 50 51 50 51 52 51 50 49 49 49 48 47 45 42 38 36 36 35 33
30 32 33 34 34 35 35 35 35 36 36 37 37 38 39 40 42 43 44 46 48 49 50 51 52 52 52 52 53 53 52 50 48 48 48 47 45 43 39 37 34 34 33 32
32 33 35 36 36 37 37 37 38 39 39 40 41 42 43 44 45 47 48 50 51 52 53 54 54 53 53 53 53 52 50 49 48 48 47 45 43 40 37 35 33 32 32 31
35 36 37 38 38 39 40 40 41 41 42 43 44 45 46 47 49 50 51 52 53 54 54 55 55 54 54 54 53 51 50 49 48 47 46 43 40 37 35 33 31 30 30 29
38 38 39 40 41 42 42 43 44 44 45 46 47 49 50 51 52 53 54 54 55 55 56 56 56 56 55 54 53 51 50 48 47 45 43 39 37 35 33 32 30 29 28 28
40 41 41 42 43 44 45 46 47 48 49 50 50 51 52 53 54 54 55 56 56 56 57 57 57 56 55 54 53 51 49 47 45 43 40 37 34 32 31 29 28 27 26 26
42 43 44 45 46 47 48 49 49 50 50 51 52 53 54 55 55 56 56 57 57 57 57 57 56 55 53 52 51 49 47 44 42 39 36 34 32 30 28 27 26 25 24 24
44 45 45 46 47 48 50 50 51 52 53 54 55 55 56 56 56 57 57 57 57 57 56 55 55 53 51 50 48 46 43 41 38 36 33 31 29 27 26 25 24 23 22 21
45 46 47 48 50 51 52 53 54 55 55 56 56 57 57 57 57 57 57 57 56 56 55 53 52 50 48 46 44 42 39 37 35 32 30 28 26 25 24 22 21 20 19 19
48 49 50 51 52 53 54 54 55 55 56 56 56 57 57 57 57 56 56 55 55 54 53 51 49 47 45 43 41 38 35 33 31 29 28 26 24 23 22 20 19 18 17 17
51 52 52 53 54 54 54 54 54 55 55 55 55 56 56 55 55 55 55 54 53 52 50 48 46 44 42 40 38 35 33 31 29 27 25 24 22 21 20 18 17 16 15 15
52 52 53 53 53 53 54 54 53 53 53 53 53 53 53 54 53 53 52 51 49 48 46 44 42 40 38 36 33 31 30 29 27 25 23 22 20 19 18 16 15 14 14 13
51 51 52 52 52 52 52 52 51 51 50 49 48 49 49 49 49 48 47 46 44 42 40 39 37 35 33 31 29 27 25 24 23 22 21 20 19 17 16 15 13 13 12 12
49 50 50 50 49 49 49 48 47 46 45 45 44 44 44 43 43 42 41 39 37 36 35 33 31 30 27 26 24 23 21 20 19 19 18 16 16 15 14 13 12 12 12 11
Wind_Direction
272 271 272 274 274 276 277 274 270 269 274 280 285 293 297 300 300 299 300 301 302 303 305 307 311 315 319 323 325 326 327 327 327 327 326 326 325 324 322 320 318 316 315 313
274 276 277 276 276 277 277 276 273 273 277 279 285 292 297 299 299 299 302 303 303 304 306 309 313 316 320 323 325 326 326 326 326 326 326 325 324 323 322 320 318 317 316 314
270 271 278 282 279 278 279 276 273 274 277 283 288 293 297 298 299 300 302 302 303 304 307 310 314 317 320 322 324 325 326 325 325 325 326 326 325 324 323 321 320 318 317 315
266 269 274 271 273 278 279 277 276 279 284 288 292 296 298 299 299 300 300 300 302 304 307 310 313 317 319 321 323 324 324 324 324 324 325 325 325 324 323 322 321 320 318 316
263 269 275 273 273 277 281 280 281 284 287 290 294 297 297 298 297 297 298 300 302 305 307 309 313 315 317 319 321 322 323 323 324 325 326 326 325 325 324 323 322 321 319 317
259 258 260 262 268 275 279 285 281 284 286 290 293 296 297 296 296 297 299 301 303 305 307 309 312 314 316 319 320 320 321 323 324 326 327 327 327 326 325 324 323 321 320 319
259 259 261 262 270 274 277 275 279 285 287 289 291 293 294 295 296 298 300 302 304 305 307 309 310 312 315 318 319 319 320 322 325 327 327 327 327 326 325 325 324 322 321 320
259 261 261 266 271 271 271 276 283 286 288 290 293 294 295 296 298 301 302 304 305 306 307 308 309 311 314 317 318 318 320 321 323 326 327 327 327 327 326 326 325 324 323 322
259 260 264 269 271 273 275 279 282 285 287 290 293 294 295 297 299 301 303 304 305 307 308 309 310 310 313 315 316 317 318 320 322 324 326 327 327 326 326 326 325 324 324 324
263 265 268 271 274 277 278 280 282 285 287 289 291 293 295 297 299 301 302 304 305 306 307 308 309 309 310 312 314 316 317 319 321 323 324 325 325 325 326 326 325 325 325 325
266 268 271 273 276 278 279 281 284 285 287 289 291 293 295 297 298 300 301 302 303 305 305 306 307 308 309 310 312 314 316 317 319 321 322 323 324 325 325 325 325 325 325 325
266 269 271 273 275 278 279 281 283 284 286 288 290 291 293 295 296 298 299 300 300 302 304 305 306 307 306 308 310 312 314 315 316 317 320 321 323 324 324 323 323 324 324 325
268 270 272 273 275 276 278 280 282 283 285 287 289 291 292 294 295 296 297 298 298 299 300 301 303 303 304 306 307 310 312 313 313 314 317 319 321 322 322 321 322 323 324 324
269 271 273 275 276 278 280 281 283 284 286 287 288 289 291 291 292 293 294 295 296 297 298 299 299 302 303 305 306 307 309 309 310 312 315 317 319 319 319 319 320 322 323 324
270 272 275 277 279 280 282 284 285 286 287 288 288 288 289 289 289 290 291 292 294 294 295 297 299 300 302 303 304 305 306 306 307 309 312 314 316 316 315 317 318 320 321 322
270 271 274 276 279 281 283 284 285 286 286 286 286 286 287 287 287 288 289 290 292 292 293 294 296 298 301 302 303 304 304 304 305 307 309 311 312 313 312 314 316 318 319 321
272 273 275 278 280 281 283 283 284 284 284 284 284 285 286 286 286 287 288 289 291 292 292 294 297 298 299 301 302 303 303 302 303 304 306 307 308 309 310 312 313 315 317 319
275 277 278 280 281 282 282 283 283 283 283 283 283 284 285 286 286 286 287 289 290 291 292 294 295 297 298 299 300 300 300 300 301 301 302 303 304 305 307 308 309 311 313 316
275 277 278 279 280 281 281 282 282 282 283 284 285 285 286 287 287 288 289 290 291 291 292 294 295 296 297 297 297 298 298 298 298 299 299 300 300 301 303 305 306 307 310 314
277 278 280 281 281 282 283 284 284 285 285 286 287 288 288 289 289 290 291 291 292 293 294 294 295 295 295 295 295 295 295 295 295 295 295 296 296 297 300 301 302 304 307 311
278 279 280 281 282 283 284 286 286 287 288 289 290 290 291 291 292 292 292 292 293 294 294 294 295 294 294 293 293 292 292 291 291 291 291 291 291 293 295 297 298 300 304 308
280 280 281 282 284 285 287 288 289 289 290 291 291 292 292 293 293 293 294 294 294 294 294 294 293 293 292 292 291 290 289 288 287 286 286 286 286 288 290 292 294 296 300 305
282 283 284 286 287 287 288 289 290 291 292 292 293 293 294 294 294 294 294 294 294 294 293 293 291 291 290 289 288 286 285 283 282 281 280 281 281 282 284 287 288 292 297 301
285 286 287 288 289 290 290 291 292 293 294 294 294 294 295 295 295 295 295 295 294 293 292 290 289 288 287 285 283 280 278 276 275 274 275 274 274 275 278 280 282 288 293 296
287 288 289 290 291 292 293 293 294 295 295 295 296 296 296 296 296 296 295 295 293 292 290 288 286 285 283 281 277 274 272 270 268 268 269 269 268 269 270 272 276 283 288 289
289 290 291 292 293 293 294 294 295 296 296 297 297 297 297 297 297 297 296 295 294 292 289 287 285 282 279 274 270 268 266 264 264 264 262 262 262 261 261 264 270 280 284 285
290 291 291 292 293 294 295 297 297 298 298 298 298 298 299 298 298 298 297 296 293 291 289 287 283 279 275 271 266 261 255 253 254 256 254 252 253 252 253 257 264 272 277 279
Height
5854 5853 5853 5852 5852 5851 5850 5850 5850 5850 5849 5847 5845 5844 5842 5841 5839 5837 5835 5833 5831 5829 5826 5823 5820 5817 5813 5809 5805 5800 5795 5790 5785 5779 5774 5768 5762 5756 5750 5744 5737 5731 5724 5718
5850 5849 5848 5848 5848 5847 5846 5845 5845 5845 5844 5842 5841 5840 5838 5836 5834 5832 5830 5828 5826 5824 5821 5818 5815 5811 5807 5803 5799 5794 5789 5784 5778 5772 5766 5760 5754 5748 5741 5734 5727 5721 5714 5707
5846 5846 5845 5845 5845 5843 5843 5841 5841 5841 5841 5838 5837 5835 5834 5832 5830 5828 5826 5823 5821 5818 5815 5812 5809 5805 5801 5797 5792 5787 5782 5777 5771 5765 5759 5753 5746 5739 5732 5725 5718 5711 5704 5697
5842 5843 5842 5844 5840 5839 5838 5837 5836 5836 5835 5833 5832 5830 5829 5827 5825 5822 5820 5818 5815 5813 5810 5807 5803 5799 5795 5790 5786 5781 5775 5770 5764 5758 5751 5744 5737 5730 5723 5715 5708 5701 5693 5686
5838 5839 5838 5838 5836 5835 5834 5834 5832 5831 5830 5828 5827 5825 5824 5821 5819 5817 5815 5812 5810 5807 5804 5800 5796 5792 5788 5783 5779 5773 5768 5762 5756 5750 5743 5736 5729 5721 5713 5706 5698 5691 5683 5676
5833 5833 5835 5835 5831 5831 5831 5830 5828 5827 5825 5824 5822 5821 5819 5816 5813 5811 5809 5806 5803 5800 5797 5794 5790 5785 5781 5776 5771 5766 5760 5755 5748 5742 5735 5728 5720 5712 5704 5696 5688 5681 5674 5666
5828 5828 5830 5827 5826 5827 5828 5827 5823 5821 5820 5818 5817 5815 5813 5810 5807 5805 5802 5800 5797 5794 5790 5787 5783 5778 5774 5769 5764 5758 5752 5746 5740 5733 5726 5719 5711 5703 5695 5687 5679 5672 5665 5657
5822 5823 5825 5820 5821 5821 5820 5819 5817 5815 5814 5812 5810 5808 5806 5803 5801 5798 5795 5792 5789 5786 5783 5779 5775 5771 5766 5761 5756 5750 5744 5738 5731 5725 5717 5709 5702 5694 5686 5678 5670 5663 5656 5649
5816 5818 5815 5814 5813 5813 5813 5812 5810 5809 5807 5805 5803 5801 5798 5796 5794 5791 5788 5785 5782 5778 5775 5771 5767 5762 5757 5752 5747 5741 5735 5729 5722 5715 5708 5700 5692 5685 5677 5669 5662 5655 5647 5641
5808 5808 5807 5806 5806 5806 5805 5804 5803 5801 5799 5798 5796 5793 5791 5788 5786 5783 5780 5777 5774 5770 5766 5762 5758 5753 5748 5743 5738 5732 5726 5719 5712 5705 5698 5691 5683 5675 5668 5660 5653 5646 5639 5633
5800 5800 5800 5799 5798 5797 5796 5795 5794 5793 5791 5789 5787 5785 5783 5780 5778 5775 5772 5768 5765 5761 5757 5753 5748 5744 5738 5733 5728 5722 5716 5709 5702 5695 5688 5681 5674 5666 5659 5652 5645 5639 5632 5625
5792 5792 5792 5791 5790 5789 5788 5787 5785 5784 5782 5780 5778 5776 5774 5771 5768 5765 5762 5759 5755 5751 5747 5743 5738 5733 5728 5723 5717 5712 5706 5699 5692 5685 5678 5671 5664 5658 5650 5644 5637 5631 5624 5618
5783 5782 5782 5782 5781 5780 5779 5778 5776 5775 5773 5771 5769 5767 5764 5762 5759 5756 5752 5749 5745 5741 5736 5732 5727 5722 5717 5712 5706 5701 5695 5689 5682 5675 5668 5661 5655 5649 5642 5636 5629 5623 5617 5611
5774 5773 5772 5772 5771 5770 5769 5768 5766 5764 5763 5761 5758 5756 5754 5751 5748 5745 5741 5738 5734 5730 5725 5721 5716 5711 5706 5701 5695 5689 5683 5677 5671 5664 5658 5652 5646 5640 5634 5628 5622 5616 5610 5604
5765 5764 5763 5762 5760 5759 5758 5757 5755 5753 5751 5749 5747 5744 5742 5739 5736 5733 5729 5726 5722 5718 5713 5709 5704 5699 5694 5689 5684 5678 5672 5666 5659 5653 5648 5642 5637 5631 5625 5620 5614 5609 5603 5597
5755 5754 5753 5751 5750 5749 5747 5746 5744 5742 5739 5737 5735 5732 5729 5726 5723 5720 5717 5713 5709 5705 5700 5696 5691 5686 5681 5676 5671 5665 5660 5654 5648 5643 5638 5632 5627 5622 5617 5612 5607 5602 5597 5591
5744 5743 5742 5741 5739 5737 5736 5734 5731 5729 5727 5724 5722 5719 5716 5713 5710 5706 5703 5699 5695 5691 5686 5682 5677 5672 5668 5663 5657 5652 5647 5642 5637 5632 5627 5622 5618 5613 5609 5604 5600 5595 5590 5586
5733 5732 5731 5729 5727 5725 5723 5721 5718 5716 5714 5711 5708 5705 5702 5699 5695 5692 5688 5685 5680 5676 5671 5667 5662 5658 5653 5648 5643 5638 5634 5629 5625 5620 5616 5612 5608 5604 5600 5596 5592 5588 5584 5580
5722 5720 5718 5717 5715 5712 5710 5708 5705 5702 5700 5697 5694 5690 5687 5684 5680 5677 5673 5669 5664 5660 5656 5651 5647 5642 5638 5633 5628 5624 5620 5616 5612 5608 5605 5602 5598 5595 5592 5589 5585 5582 5578 5574
5709 5708 5706 5703 5701 5698 5696 5693 5690 5687 5684 5681 5678 5675 5671 5668 5664 5660 5656 5652 5647 5643 5639 5635 5630 5626 5622 5618 5613 5610 5606 5603 5599 5596 5594 5591 5589 5586 5584 5581 5578 5575 5572 5568
5696 5694 5692 5689 5687 5684 5681 5678 5675 5672 5669 5665 5662 5658 5654 5650 5646 5642 5638 5634 5630 5625 5621 5617 5613 5609 5605 5602 5598 5595 5592 5589 5587 5585 5583 5581 5579 5578 5576 5573 5571 5569 5566 5563
5682 5680 5677 5675 5672 5669 5666 5663 5659 5655 5652 5648 5644 5640 5636 5632 5628 5624 5620 5616 5612 5607 5604 5600 5596 5592 5589 5586 5583 5581 5578 5577 5575 5574 5573 5572 5570 5569 5568 5566 5564 5562 5560 5557
5667 5665 5662 5659 5656 5653 5650 5646 5642 5639 5635 5631 5627 5622 5618 5614 5610 5606 5602 5598 5594 5590 5586 5583 5579 5576 5573 5571 5569 5567 5566 5565 5564 5563 5563 5562 5562 5561 5560 5559 5558 5556 5554 5552
5652 5649 5646 5643 5640 5636 5633 5630 5626 5622 5617 5613 5609 5604 5600 5596 5592 5588 5583 5579 5576 5572 5569 5566 5563 5560 5558 5556 5555 5554 5553 5553 5553 5553 5553 5553 5553 5553 5553 5552 5551 5550 5549 5547
5636 5633 5630 5627 5623 5620 5616 5613 5609 5605 5601 5596 5592 5587 5582 5578 5574 5570 5566 5562 5558 5554 5551 5549 5547 5545 5543 5542 5541 5541 5542 5542 5543 5544 5544 5545 5545 5546 5546 5546 5545 5545 5544 5543
5620 5617 5614 5610 5607 5603 5600 5596 5592 5588 5584 5580 5576 5571 5566 5562 5557 5553 5549 5545 5542 5538 5536 5533 5532 5530 5529 5529 5529 5530 5531 5532 5534 5535 5536 5537 5538 5539 5539 5540 5540 5540 5539 5538
5605 5601 5598 5595 5591 5588 5584 5580 5577 5573 5569 5565 5561 5556 5552 5547 5542 5538 5534 5531 5528 5525 5522 5520 5518 5518 5517 5518 5518 5520 5522 5524 5526 5527 5529 5530 5531 5533 5534 5534 5535 5535 5535 5534